Location: Coopersdale
(40.3556°N, 78.9372°W)
Time: 07:43:13
(UTC+00:00)

Tiros 1 despin weight - Pass Details

Date: 21 June 2021
Orbit: 593 x 642 km, 48.2° (Epoch: 04 August)

Event Time Altitude Azimuth Distance (km) Brightness Sun altitude
Exits shadow 09:04:30 - 198° (SSW) 2,372 ? -7.2°
Reaches altitude 10° 09:05:50 10° 190° (S) 1,926 ? -7.0°
Maximum altitude 09:09:24 24° 136° (SE) 1,237 ? -6.5°
Drops below altitude 10° 09:12:57 10° 82° (E) 1,922 ? -6.0°
Sets 09:15:33 0° 69° (ENE) 2,825 ? -5.6°
